Location: ????????
(56.0167°N, 38.0333°E)
Time: 13:37:47
(UTC+00:00)

Meteor 2-10 Rocket - Pass Details

Date: 19 May 2025
Orbit: 733 x 881 km, 81.2° (Epoch: 20 June)

Event Time Altitude Azimuth Distance (km) Brightness Sun altitude
Rises 21:17:24 0° 345° (NNW) 3,428 8.6 -14.0°
Reaches altitude 10° 21:19:49 10° 348° (NNW) 2,505 7.5 -14.0°
Maximum altitude 21:25:33 73° 73° (ENE) 917 3.9 -14.0°
Enters shadow 21:30:07 17° 157° (SSE) 2,079 5.2 -14.0°
